Weather History for Monterrey Airport, Mexico

Change the Weather History Date:

Thursday, November 22, 2012

  Actual Average Record
Temperature  
Mean Temperature 68 °F -  
Max Temperature 75 °F 71 °F 91 °F (2010)
Min Temperature 62 °F 49 °F 41 °F (2013)
Cooling Degree Days 4    
Growing Degree Days 18 (Base 50)    
Moisture  
Dew Point 64 °F    
Average Humidity 86    
Maximum Humidity 100    
Minimum Humidity 69    
Precipitation  
Precipitation 0.00 in - - ()
Sea Level Pressure  
Sea Level Pressure 30.13 in    
Wind  
Wind Speed 2 mph ()    
Max Wind Speed 12 mph    
Max Gust Speed -    
Visibility 5.5 miles    
Events      
Averages and records for this station are not official NWS values.
T = Trace of Precipitation, MM = Missing Value Source: Averaged Metar Reports

Daily Weather History Graph

Daily Weather History Graph

Search for Another Location

Airport:

Trip Planner

Search our weather history database for the weather conditions in past years. The results will help you decide how hot, cold, wet, or windy it might be!

Date:

Astronomy

Nov. 22, 2012 Rise Set
Actual Time 7:04 AM CST 5:49 PM CST
Civil Twilight 6:39 AM CST 6:14 PM CST
Nautical Twilight 6:11 AM CST 6:42 PM CST
Astronomical Twilight 5:44 AM CST 7:10 PM CST
Moon 2:10 PM CST (11/22) 1:55 AM CST (11/22)
Length of Visible Light 11h 34m
Length of Day
10h 45m
Waxing Gibbous, 71% of the Moon is Illuminated
Nov 22
Waxing Gibbous
Nov 28
Full
Dec 6
Last Quarter
Dec 13
New
Dec 19
First Quarter

Hourly Weather History & Observations

Time (CST) Temp. Dew Point Humidity Pressure Visibility Wind Dir Wind Speed Gust Speed Precip Events Conditions
6:44 AM 62.6 °F 62.6 °F 100% 30.18 in 2.0 mi Calm Calm - N/A   Drizzle
7:40 AM 62.6 °F 62.6 °F 100% 30.18 in 2.0 mi Calm Calm - N/A   Drizzle
8:40 AM 64.4 °F 62.6 °F 94% 30.11 in 2.0 mi Calm Calm - N/A   Overcast
9:43 AM 64.4 °F 64.4 °F 100% 30.21 in 3.0 mi Calm Calm - N/A   Overcast
10:40 AM 66.2 °F 64.4 °F 94% 30.28 in 3.0 mi Calm Calm - N/A   Overcast
11:40 AM 66.2 °F 64.4 °F 94% 30.11 in 3.0 mi ESE 5.8 mph - N/A   Overcast
12:40 PM 71.6 °F 66.2 °F 83% 30.26 in 4.0 mi SE 5.8 mph - N/A   Mostly Cloudy
1:15 PM 73.4 °F 66.2 °F 78% 30.13 in 4.0 mi SE 4.6 mph - N/A   Mostly Cloudy
1:40 PM 75.2 °F 64.4 °F 69% 30.12 in 4.0 mi South 4.6 mph - N/A   Mostly Cloudy
2:41 PM 75.2 °F 64.4 °F 69% 30.05 in 5.0 mi ESE 4.6 mph - N/A   Mostly Cloudy
3:40 PM 75.2 °F 64.4 °F 69% 30.10 in 5.0 mi ESE 10.4 mph - N/A   Mostly Cloudy
4:40 PM 73.4 °F 62.6 °F 69% 30.10 in 6.0 mi SE 11.5 mph - N/A   Mostly Cloudy
5:40 PM 69.8 °F 62.6 °F 78% 30.02 in 8.0 mi ESE 4.6 mph - N/A   Mostly Cloudy
6:40 PM 68.0 °F 62.6 °F 83% 30.11 in 8.0 mi East 4.6 mph - N/A   Mostly Cloudy
7:40 PM 68.0 °F 62.6 °F 83% 30.14 in 8.0 mi Calm Calm - N/A   Mostly Cloudy
8:40 PM 66.2 °F 64.4 °F 94% 30.06 in 8.0 mi Calm Calm - N/A   Mostly Cloudy
9:40 PM 66.2 °F 64.4 °F 94% 30.15 in 10.0 mi Calm Calm - N/A   Mostly Cloudy
10:40 PM 68.0 °F 62.6 °F 83% 30.15 in 10.0 mi Calm Calm - N/A   Mostly Cloudy
11:40 PM 66.2 °F 64.4 °F 94% 30.06 in 10.0 mi Calm Calm - N/A   Mostly Cloudy